TimeCST,TemperatureF,Dew PointF,Humidity,Sea Level PressureIn,VisibilityMPH,Wind Direction,Wind SpeedMPH,Gust SpeedMPH,PrecipitationIn,Events,Conditions,WindDirDegrees,DateUTC
12:53 AM,19.9,15.1,81,30.44,10.0,West,5.8,-,N/A,,Clear,270,2011-11-17 06:53:00
1:53 AM,19.9,14.0,78,30.42,10.0,West,5.8,-,N/A,,Clear,260,2011-11-17 07:53:00
2:53 AM,19.0,14.0,81,30.41,10.0,West,4.6,-,N/A,,Clear,260,2011-11-17 08:53:00
4:53 AM,21.9,16.0,78,30.35,10.0,West,6.9,-,N/A,,Clear,260,2011-11-17 10:53:00
5:53 AM,19.9,15.1,81,30.35,10.0,West,5.8,-,N/A,,Clear,260,2011-11-17 11:53:00
6:53 AM,23.0,18.0,81,30.34,10.0,WSW,6.9,-,N/A,,Clear,240,2011-11-17 12:53:00
7:53 AM,24.1,19.0,81,30.33,10.0,WSW,8.1,-,N/A,,Clear,240,2011-11-17 13:53:00
8:53 AM,32.0,21.9,66,30.31,10.0,WSW,12.7,-,N/A,,Clear,240,2011-11-17 14:53:00
9:53 AM,37.9,26.1,62,30.27,10.0,SW,13.8,-,N/A,,Clear,220,2011-11-17 15:53:00
11:53 AM,48.0,23.0,37,30.17,10.0,SW,20.7,33.4,N/A,,Clear,220,2011-11-17 17:53:00
12:53 PM,51.1,21.0,31,30.12,10.0,SSW,24.2,34.5,N/A,,Clear,200,2011-11-17 18:53:00
1:53 PM,52.0,19.9,28,30.07,10.0,SSW,21.9,32.2,N/A,,Clear,210,2011-11-17 19:53:00
2:53 PM,53.1,19.9,27,30.04,10.0,SSW,20.7,31.1,N/A,,Clear,200,2011-11-17 20:53:00
3:53 PM,52.0,19.9,28,30.01,10.0,SSW,19.6,29.9,N/A,,Clear,200,2011-11-17 21:53:00
4:53 PM,51.1,21.0,31,29.98,10.0,South,11.5,19.6,N/A,,Clear,190,2011-11-17 22:53:00
5:53 PM,46.9,21.0,36,29.97,10.0,South,8.1,-,N/A,,Clear,190,2011-11-17 23:53:00
6:53 PM,45.0,21.0,39,29.96,10.0,SSW,6.9,-,N/A,,Clear,210,2011-11-18 00:53:00
7:53 PM,43.0,21.9,43,29.94,10.0,Variable,4.6,-,N/A,,Clear,0,2011-11-18 01:53:00
8:53 PM,42.1,21.9,45,29.91,10.0,SSW,9.2,16.1,N/A,,Clear,210,2011-11-18 02:53:00
9:53 PM,42.1,23.0,47,29.88,10.0,SSW,6.9,17.3,N/A,,Clear,200,2011-11-18 03:53:00
10:53 PM,42.1,23.0,47,29.84,10.0,SSW,12.7,25.3,N/A,,Clear,200,2011-11-18 04:53:00
11:53 PM,41.0,23.0,49,29.82,10.0,SSW,8.1,17.3,N/A,,Clear,210,2011-11-18 05:53:00